,,PA_Meas_PMT16A,,PR_Meas_QMR101_102,,RH_Meas_QMH101,,SR_Meas_QMS101,,TA_Meas_QMH101,,GenWind,,GenWind,
time,status,PA,status,PR,status,RH,status,SR,status,TA,status,DirAvg,status,SpdAvg,
2015-01-11, 00:00:04,VALID,919.077,VALID,0,VALID,97.9228,VALID,0,VALID,18.8853,VALID,343,VALID,0,
2015-01-11, 00:01:04,VALID,919.085,VALID,0,VALID,97.8999,VALID,0,VALID,18.9048,VALID,343,VALID,0,
2015-01-11, 00:02:04,VALID,919.114,VALID,0,VALID,97.877,VALID,0,VALID,18.9062,VALID,343,VALID,0.107031,
2015-01-11, 00:03:04,VALID,919.11,VALID,0,VALID,97.9152,VALID,0,VALID,18.9048,VALID,343,VALID,0.0382813,
2015-01-11, 00:04:04,VALID,919.125,VALID,0,VALID,97.8923,VALID,0,VALID,18.9243,VALID,342,VALID,0,
2015-01-11, 00:05:04,VALID,919.126,VALID,0,VALID,97.8923,VALID,0,VALID,18.9243,VALID,343,VALID,0,
2015-01-11, 00:06:04,VALID,919.142,VALID,0,VALID,97.9152,VALID,0,VALID,18.8839,VALID,343,VALID,0,
2015-01-11, 00:07:04,VALID,919.155,VALID,0,VALID,97.9075,VALID,0,VALID,18.9034,VALID,343,VALID,0,
2015-01-11, 00:08:04,VALID,919.154,VALID,0,VALID,97.877,VALID,0,VALID,18.9243,VALID,343,VALID,0.188672,
2015-01-11, 00:09:04,VALID,919.15,VALID,0,VALID,97.8999,VALID,0,VALID,18.9034,VALID,344,VALID,0.678906,
2015-01-11, 00:10:04,VALID,919.153,VALID,0,VALID,97.9228,VALID,0,VALID,18.8839,VALID,344,VALID,0.430469,
2015-01-11, 00:11:04,VALID,919.119,VALID,0,VALID,97.9075,VALID,0.107441,VALID,18.8644,VALID,344,VALID,0.232422,
2015-01-11, 00:12:04,VALID,919.098,VALID,0,VALID,97.9152,VALID,0,VALID,18.8853,VALID,344,VALID,0.548047,
2015-01-11, 00:13:04,VALID,919.116,VALID,0,VALID,97.9228,VALID,0,VALID,18.8658,VALID,358,VALID,1.00977,
2015-01-11, 00:14:04,VALID,919.097,VALID,0,VALID,97.9152,VALID,0,VALID,18.8644,VALID,354,VALID,0.303125,
2015-01-11, 00:15:04,VALID,919.073,VALID,0,VALID,97.9228,VALID,0,VALID,18.8658,VALID,354,VALID,0,
2015-01-11, 00:16:04,VALID,919.053,VALID,0,VALID,97.9152,VALID,0,VALID,18.8644,VALID,354,VALID,0.000390625,
2015-01-11, 00:17:04,VALID,919.056,VALID,0,VALID,97.9456,VALID,0,VALID,18.8658,VALID,17,VALID,0.793359,
2015-01-11, 00:18:04,VALID,919.042,VALID,0,VALID,97.9456,VALID,0.107441,VALID,18.8658,VALID,16,VALID,0.146484,
2015-01-11, 00:19:04,VALID,919.043,VALID,0,VALID,97.938,VALID,0,VALID,18.8658,VALID,16,VALID,0.197656,
2015-01-11, 00:20:04,VALID,919.025,VALID,0,VALID,97.9456,VALID,0,VALID,18.8463,VALID,16,VALID,0,
2015-01-11, 00:21:04,VALID,919.053,VALID,0,VALID,97.938,VALID,0,VALID,18.8463,VALID,16,VALID,0,
2015-01-11, 00:22:04,VALID,919.032,VALID,0,VALID,97.9456,VALID,0,VALID,18.8672,VALID,16,VALID,0.272266,
2015-01-11, 00:23:04,VALID,918.988,VALID,0,VALID,97.9609,VALID,0,VALID,18.8463,VALID,16,VALID,0.473047,
2015-01-11, 00:24:04,VALID,919.007,VALID,0,VALID,97.9533,VALID,0,VALID,18.8463,VALID,16,VALID,0,
2015-01-11, 00:25:04,VALID,919.009,VALID,0,VALID,97.9685,VALID,0,VALID,18.8463,VALID,16,VALID,0.0777344,
2015-01-11, 00:26:04,VALID,918.995,VALID,0,VALID,97.9533,VALID,0,VALID,18.8463,VALID,16,VALID,0,
2015-01-11, 00:27:04,VALID,918.977,VALID,0,VALID,97.9685,VALID,0,VALID,18.8672,VALID,16,VALID,0,
2015-01-11, 00:28:04,VALID,918.958,VALID,0,VALID,97.9838,VALID,0,VALID,18.8477,VALID,15,VALID,0,
2015-01-11, 00:29:04,VALID,918.929,VALID,0,VALID,97.9685,VALID,0,VALID,18.8268,VALID,16,VALID,0.116406,
2015-01-11, 00:30:04,VALID,918.902,VALID,0,VALID,97.9685,VALID,0,VALID,18.8463,VALID,16,VALID,0.305859,
2015-01-11, 00:31:04,VALID,918.894,VALID,0,VALID,97.9685,VALID,0,VALID,18.8268,VALID,16,VALID,0.0976563,
2015-01-11, 00:32:04,VALID,918.885,VALID,0,VALID,97.9914,VALID,0,VALID,18.8268,VALID,16,VALID,0,
2015-01-11, 00:33:04,VALID,918.896,VALID,0,VALID,97.9838,VALID,0,VALID,18.8477,VALID,16,VALID,0.0417969,
2015-01-11, 00:34:04,VALID,918.87,VALID,0,VALID,97.9914,VALID,0,VALID,18.8477,VALID,16,VALID,0,
2015-01-11, 00:35:04,VALID,918.834,VALID,0,VALID,97.9914,VALID,0,VALID,18.8268,VALID,15,VALID,0,
2015-01-11, 00:36:04,VALID,918.826,VALID,0,VALID,97.999,VALID,0,VALID,18.8268,VALID,16,VALID,0.133594,
2015-01-11, 00:37:04,VALID,918.808,VALID,0,VALID,97.999,VALID,0,VALID,18.8477,VALID,16,VALID,0.122266,
2015-01-11, 00:38:04,VALID,918.832,VALID,0,VALID,97.9914,VALID,0,VALID,18.8477,VALID,16,VALID,0.242969,
2015-01-11, 00:39:04,VALID,918.792,VALID,0,VALID,98.0066,VALID,0,VALID,18.8268,VALID,61,VALID,0.283203,
2015-01-11, 00:40:04,VALID,918.794,VALID,0,VALID,98.0066,VALID,0,VALID,18.8268,VALID,61,VALID,0.309375,
2015-01-11, 00:41:04,VALID,918.754,VALID,0,VALID,98.0066,VALID,0,VALID,18.8463,VALID,61,VALID,0.0949219,
2015-01-11, 00:42:04,VALID,918.706,VALID,0,VALID,98.0066,VALID,0,VALID,18.8463,VALID,61,VALID,0,
2015-01-11, 00:43:04,VALID,918.687,VALID,0,VALID,98.0143,VALID,0,VALID,18.8463,VALID,61,VALID,0,
2015-01-11, 00:44:04,VALID,918.617,VALID,0,VALID,98.0066,VALID,0,VALID,18.8658,VALID,61,VALID,0,
2015-01-11, 00:45:04,VALID,918.632,VALID,0,VALID,98.0219,VALID,0,VALID,18.8658,VALID,61,VALID,0,
2015-01-11, 00:46:04,VALID,918.614,VALID,0,VALID,98.0066,VALID,0,VALID,18.8463,VALID,61,VALID,0,
2015-01-11, 00:47:04,VALID,918.577,VALID,0,VALID,98.0143,VALID,0,VALID,18.8658,VALID,61,VALID,0,
2015-01-11, 00:48:04,VALID,918.559,VALID,0,VALID,98.0143,VALID,0,VALID,18.8463,VALID,61,VALID,0,
2015-01-11, 00:49:04,VALID,918.542,VALID,0,VALID,98.0143,VALID,0,VALID,18.8463,VALID,56,VALID,0.0753906,
2015-01-11, 00:50:04,VALID,918.508,VALID,0,VALID,98.0066,VALID,0,VALID,18.8463,VALID,20,VALID,0.660156,
2015-01-11, 00:51:04,VALID,918.501,VALID,0,VALID,98.0448,VALID,0,VALID,18.8268,VALID,29,VALID,1.05391,
2015-01-11, 00:52:04,VALID,918.502,VALID,0,VALID,98.0448,VALID,0,VALID,18.8463,VALID,20,VALID,1.01992,
2015-01-11, 00:53:04,VALID,918.492,VALID,0,VALID,98.0219,VALID,0,VALID,18.8073,VALID,23,VALID,0.801172,
2015-01-11, 00:54:04,VALID,918.5,VALID,0,VALID,98.0448,VALID,0,VALID,18.8268,VALID,19,VALID,0.775,
2015-01-11, 00:55:04,VALID,918.494,VALID,0,VALID,98.0448,VALID,0,VALID,18.8268,VALID,19,VALID,0.628125,
2015-01-11, 00:56:04,VALID,918.464,VALID,0,VALID,98.0448,VALID,0,VALID,18.8268,VALID,19,VALID,0.834375,
2015-01-11, 00:57:04,VALID,918.484,VALID,0,VALID,98.06,VALID,0,VALID,18.8463,VALID,19,VALID,0.2,
2015-01-11, 00:58:04,VALID,918.462,VALID,0,VALID,98.06,VALID,0,VALID,18.8463,VALID,19,VALID,0.021875,
2015-01-11, 00:59:04,VALID,918.501,VALID,0,VALID,98.0676,VALID,0,VALID,18.8268,VALID,301,VALID,0.571094,
2015-01-11, 01:00:04,VALID,918.472,VALID,0,VALID,98.0752,VALID,0,VALID,18.8477,VALID,275,VALID,0.111328,
2015-01-11, 01:01:04,VALID,918.424,VALID,0,VALID,98.0829,VALID,0,VALID,18.8073,VALID,275,VALID,0,
2015-01-11, 01:02:04,VALID,918.448,VALID,0,VALID,98.0829,VALID,0,VALID,18.8268,VALID,275,VALID,0,
2015-01-11, 01:03:04,VALID,918.407,VALID,0,VALID,98.0752,VALID,0,VALID,18.8282,VALID,275,VALID,0,
2015-01-11, 01:04:04,VALID,918.368,VALID,0,VALID,98.0829,VALID,0.107441,VALID,18.8268,VALID,275,VALID,0,
2015-01-11, 01:05:04,VALID,918.301,VALID,0,VALID,98.0752,VALID,0.107441,VALID,18.8059,VALID,275,VALID,0,
2015-01-11, 01:06:04,VALID,918.311,VALID,0,VALID,98.0676,VALID,0.107441,VALID,18.8059,VALID,275,VALID,0,
2015-01-11, 01:07:04,VALID,918.268,VALID,0,VALID,98.1057,VALID,0.107441,VALID,18.8059,VALID,276,VALID,0,
2015-01-11, 01:08:04,VALID,918.276,VALID,0,VALID,98.121,VALID,0.107441,VALID,18.8059,VALID,275,VALID,0,
2015-01-11, 01:09:04,VALID,918.245,VALID,0,VALID,98.1057,VALID,0.107441,VALID,18.8059,VALID,290,VALID,0,
2015-01-11, 01:10:04,VALID,918.247,VALID,0,VALID,98.1057,VALID,0.107441,VALID,18.8059,VALID,317,VALID,0,
2015-01-11, 01:11:04,VALID,918.218,VALID,0,VALID,98.1286,VALID,0.107441,VALID,18.7864,VALID,317,VALID,0.286719,
2015-01-11, 01:12:04,VALID,918.201,VALID,0,VALID,98.1286,VALID,0,VALID,18.7864,VALID,317,VALID,0.576563,
2015-01-11, 01:13:04,VALID,918.184,VALID,0,VALID,98.1286,VALID,0.107441,VALID,18.8268,VALID,325,VALID,0.766016,
2015-01-11, 01:14:04,VALID,918.178,VALID,0,VALID,98.1362,VALID,0.107441,VALID,18.8059,VALID,350,VALID,0.325391,
2015-01-11, 01:15:04,VALID,918.173,VALID,0,VALID,98.121,VALID,0.107441,VALID,18.8254,VALID,350,VALID,0.278516,
2015-01-11, 01:16:04,VALID,918.174,VALID,0,VALID,98.1362,VALID,0.107441,VALID,18.8059,VALID,350,VALID,0,
2015-01-11, 01:17:04,VALID,918.155,VALID,0,VALID,98.1286,VALID,0.107441,VALID,18.8059,VALID,350,VALID,0.274219,
2015-01-11, 01:18:04,VALID,918.136,VALID,0,VALID,98.1515,VALID,0.107441,VALID,18.8059,VALID,350,VALID,0.0667969,
2015-01-11, 01:19:04,VALID,918.116,VALID,0,VALID,98.1439,VALID,0,VALID,18.8282,VALID,350,VALID,0.254687,
2015-01-11, 01:20:04,VALID,918.09,VALID,0,VALID,98.1591,VALID,0,VALID,18.8073,VALID,342,VALID,0.302344,
2015-01-11, 01:21:04,VALID,918.107,VALID,0,VALID,98.1667,VALID,0,VALID,18.8073,VALID,338,VALID,0,
2015-01-11, 01:22:04,VALID,918.052,VALID,0,VALID,98.1667,VALID,0,VALID,18.8073,VALID,338,VALID,0.00625,
2015-01-11, 01:23:04,VALID,918.018,VALID,0,VALID,98.1591,VALID,0,VALID,18.8073,VALID,324,VALID,0.778906,
2015-01-11, 01:24:04,VALID,918.039,VALID,0,VALID,98.1667,VALID,0,VALID,18.8073,VALID,341,VALID,0.328906,
2015-01-11, 01:25:04,VALID,918.04,VALID,0,VALID,98.1515,VALID,0,VALID,18.8073,VALID,341,VALID,0.465234,
2015-01-11, 01:26:04,VALID,918.014,VALID,0,VALID,98.1743,VALID,0,VALID,18.8268,VALID,341,VALID,0.366406,
2015-01-11, 01:27:04,VALID,918.031,VALID,0,VALID,98.1591,VALID,0,VALID,18.8073,VALID,341,VALID,0.594141,
2015-01-11, 01:28:04,VALID,917.984,VALID,0,VALID,98.1515,VALID,0,VALID,18.8073,VALID,341,VALID,0.579687,
2015-01-11, 01:29:04,VALID,918.018,VALID,0,VALID,98.1743,VALID,0,VALID,18.8073,VALID,341,VALID,0.358203,
2015-01-11, 01:30:04,VALID,918.007,VALID,0,VALID,98.1743,VALID,0,VALID,18.7878,VALID,341,VALID,0.410156,
2015-01-11, 01:31:04,VALID,917.996,VALID,0,VALID,98.182,VALID,0,VALID,18.8073,VALID,341,VALID,0.260547,
2015-01-11, 01:32:04,VALID,918.013,VALID,0,VALID,98.1743,VALID,0,VALID,18.7878,VALID,341,VALID,0.422656,
2015-01-11, 01:33:04,VALID,917.982,VALID,0,VALID,98.1896,VALID,0,VALID,18.8073,VALID,12,VALID,0.613281,
2015-01-11, 01:34:04,VALID,917.972,VALID,0,VALID,98.182,VALID,0,VALID,18.7878,VALID,12,VALID,0.808984,
2015-01-11, 01:35:04,VALID,917.96,VALID,0,VALID,98.182,VALID,0,VALID,18.7683,VALID,9,VALID,1.1,
2015-01-11, 01:36:04,VALID,917.945,VALID,0,VALID,98.182,VALID,0,VALID,18.7878,VALID,19,VALID,1.56367,
2015-01-11, 01:37:04,VALID,917.938,VALID,0,VALID,98.1896,VALID,0,VALID,18.8073,VALID,12,VALID,0.91875,
2015-01-11, 01:38:04,VALID,917.929,VALID,0,VALID,98.1972,VALID,0,VALID,18.7878,VALID,357,VALID,1.37031,
2015-01-11, 07:38:04,VALID,919.32,VALID,0,VALID,96.4896,VALID,87.4571,VALID,19.5483,VALID,9,VALID,1.48945,
2015-01-11, 07:39:04,VALID,919.173,VALID,0,VALID,96.4743,VALID,94.6557,VALID,19.6263,VALID,346,VALID,1.36055,
2015-01-11, 07:40:04,VALID,919.151,VALID,0,VALID,96.3295,VALID,91.325,VALID,19.6458,VALID,349,VALID,0.710938,
2015-01-11, 07:41:04,VALID,919.163,VALID,0,VALID,96.1618,VALID,92.2919,VALID,19.6443,VALID,346,VALID,0.724609,
2015-01-11, 07:42:04,VALID,919.148,VALID,0,VALID,96.1236,VALID,95.3003,VALID,19.6848,VALID,343,VALID,0.735156,
2015-01-11, 07:43:04,VALID,919.202,VALID,0,VALID,96.0703,VALID,97.9863,VALID,19.6638,VALID,335,VALID,0.711719,
2015-01-11, 07:44:04,VALID,919.209,VALID,0,VALID,96.1465,VALID,95.7301,VALID,19.7043,VALID,337,VALID,0.535156,
2015-01-11, 07:45:04,VALID,919.214,VALID,0,VALID,96.1389,VALID,96.697,VALID,19.7238,VALID,338,VALID,0.530078,
2015-01-11, 07:46:04,VALID,919.28,VALID,0,VALID,96.177,VALID,98.4161,VALID,19.7628,VALID,337,VALID,0.510547,
2015-01-11, 07:47:04,VALID,919.28,VALID,0,VALID,96.1694,VALID,100.565,VALID,19.7628,VALID,343,VALID,0.529688,
2015-01-11, 07:48:04,VALID,919.311,VALID,0,VALID,96.1465,VALID,103.036,VALID,19.7433,VALID,358,VALID,1.59922,
2015-01-11, 07:49:04,VALID,919.294,VALID,0,VALID,96.0627,VALID,105.615,VALID,19.7628,VALID,11,VALID,1.07617,
2015-01-11, 07:50:04,VALID,919.297,VALID,0,VALID,96.0474,VALID,108.516,VALID,19.7823,VALID,345,VALID,1.34727,
2015-01-11, 07:51:04,VALID,919.317,VALID,0,VALID,96.1008,VALID,111.524,VALID,19.8588,VALID,349,VALID,0.20625,
2015-01-11, 07:52:04,VALID,919.311,VALID,0,VALID,96.0779,VALID,115.069,VALID,19.8798,VALID,321,VALID,0.498828,
2015-01-11, 07:53:04,VALID,919.337,VALID,0,VALID,96.0245,VALID,118.4,VALID,19.8588,VALID,322,VALID,0.621094,
2015-01-11, 07:54:04,VALID,919.348,VALID,0,VALID,95.9941,VALID,121.731,VALID,19.8198,VALID,344,VALID,0.648828,
2015-01-11, 07:55:04,VALID,919.382,VALID,0,VALID,96.1084,VALID,125.062,VALID,19.8393,VALID,344,VALID,0.108984,
2015-01-11, 07:56:04,VALID,919.436,VALID,0,VALID,96.238,VALID,127.748,VALID,19.8588,VALID,344,VALID,0.204688,
2015-01-11, 07:57:04,VALID,919.448,VALID,0,VALID,96.3142,VALID,129.896,VALID,19.9188,VALID,329,VALID,0.361719,
2015-01-11, 07:58:04,VALID,919.462,VALID,0,VALID,96.238,VALID,131.83,VALID,19.8798,VALID,269,VALID,0.569531,
2015-01-11, 07:59:04,VALID,919.465,VALID,0,VALID,96.2228,VALID,134.409,VALID,19.8993,VALID,269,VALID,0,
2015-01-11, 08:00:04,VALID,919.451,VALID,0,VALID,96.3219,VALID,137.632,VALID,19.9578,VALID,270,VALID,0.324609,
2015-01-11, 08:01:04,VALID,919.471,VALID,0,VALID,96.3752,VALID,139.996,VALID,20.0163,VALID,311,VALID,0.494922,
2015-01-11, 08:02:04,VALID,919.445,VALID,0,VALID,96.3676,VALID,142.145,VALID,20.0343,VALID,311,VALID,0.301562,
2015-01-11, 08:03:04,VALID,919.473,VALID,0,VALID,96.2685,VALID,143.756,VALID,20.0538,VALID,332,VALID,0.451953,
2015-01-11, 08:04:04,VALID,919.485,VALID,0,VALID,95.7349,VALID,144.938,VALID,20.0343,VALID,341,VALID,0.792969,
2015-01-11, 08:05:04,VALID,919.478,VALID,0,VALID,95.6434,VALID,145.798,VALID,20.1123,VALID,341,VALID,0.392969,
2015-01-11, 08:06:04,VALID,919.488,VALID,0,VALID,95.4528,VALID,146.55,VALID,20.1513,VALID,336,VALID,0.531641,
2015-01-11, 08:07:04,VALID,919.519,VALID,0,VALID,95.4452,VALID,147.409,VALID,20.2293,VALID,333,VALID,0.0300781,
2015-01-11, 08:08:04,VALID,919.53,VALID,0,VALID,94.6828,VALID,147.732,VALID,20.1903,VALID,271,VALID,0.403516,
2015-01-11, 08:09:04,VALID,919.539,VALID,0,VALID,93.9205,VALID,146.979,VALID,20.1919,VALID,271,VALID,0.003125,
2015-01-11, 08:10:04,VALID,919.57,VALID,0,VALID,93.7833,VALID,146.335,VALID,20.1708,VALID,271,VALID,0,
2015-01-11, 08:11:04,VALID,919.566,VALID,0,VALID,93.1886,VALID,146.013,VALID,20.2098,VALID,303,VALID,0,
2015-01-11, 08:12:04,VALID,919.596,VALID,0,VALID,93.3564,VALID,145.798,VALID,20.2489,VALID,307,VALID,0,
2015-01-11, 08:13:04,VALID,919.584,VALID,0,VALID,92.9676,VALID,146.013,VALID,20.2293,VALID,300,VALID,0,
2015-01-11, 08:14:04,VALID,919.623,VALID,0,VALID,93.0209,VALID,146.979,VALID,20.2684,VALID,300,VALID,0,
2015-01-11, 08:15:04,VALID,919.64,VALID,0,VALID,92.9904,VALID,148.376,VALID,20.3074,VALID,300,VALID,0,
2015-01-11, 08:16:04,VALID,919.654,VALID,0,VALID,92.716,VALID,149.88,VALID,20.3464,VALID,265,VALID,0,
2015-01-11, 08:17:04,VALID,919.637,VALID,0,VALID,91.8774,VALID,151.922,VALID,20.3269,VALID,263,VALID,0,
2015-01-11, 08:18:04,VALID,919.65,VALID,0,VALID,91.5496,VALID,153.641,VALID,20.3074,VALID,263,VALID,0,
2015-01-11, 08:19:04,VALID,919.652,VALID,0,VALID,91.664,VALID,154.608,VALID,20.3269,VALID,263,VALID,0,
2015-01-11, 08:20:04,VALID,919.604,VALID,0,VALID,92.1671,VALID,155.36,VALID,20.4049,VALID,263,VALID,0,
2015-01-11, 08:21:04,VALID,919.608,VALID,0,VALID,92.2814,VALID,157.079,VALID,20.4634,VALID,263,VALID,0,
2015-01-11, 08:22:04,VALID,919.614,VALID,0,VALID,92.3653,VALID,159.765,VALID,20.4634,VALID,263,VALID,0,
2015-01-11, 08:23:04,VALID,919.594,VALID,0,VALID,92.3424,VALID,162.773,VALID,20.5414,VALID,263,VALID,0,
2015-01-11, 08:24:04,VALID,919.612,VALID,0,VALID,92.068,VALID,166.211,VALID,20.5594,VALID,263,VALID,0,
2015-01-11, 08:25:04,VALID,919.57,VALID,0,VALID,91.2447,VALID,169.65,VALID,20.5984,VALID,263,VALID,0,
2015-01-11, 08:26:04,VALID,919.557,VALID,0,VALID,89.6819,VALID,172.765,VALID,20.5999,VALID,263,VALID,0,
2015-01-11, 08:27:04,VALID,919.552,VALID,0,VALID,89.5065,VALID,175.881,VALID,20.639,VALID,263,VALID,0,
2015-01-11, 08:28:04,VALID,919.531,VALID,0,VALID,89.3236,VALID,178.997,VALID,20.6585,VALID,263,VALID,0,
2015-01-11, 08:29:04,VALID,919.543,VALID,0,VALID,89.1559,VALID,182.328,VALID,20.678,VALID,263,VALID,0,
2015-01-11, 08:30:04,VALID,919.533,VALID,0,VALID,89.072,VALID,185.873,VALID,20.678,VALID,263,VALID,0,
2015-01-11, 08:31:04,VALID,919.533,VALID,0,VALID,89.2245,VALID,190.386,VALID,20.6975,VALID,263,VALID,0,
2015-01-11, 08:32:04,VALID,919.499,VALID,0,VALID,89.072,VALID,195.65,VALID,20.6975,VALID,270,VALID,0,
2015-01-11, 08:33:04,VALID,919.517,VALID,0,VALID,89.2092,VALID,201.13,VALID,20.6975,VALID,302,VALID,0,
2015-01-11, 08:34:04,VALID,919.51,VALID,0,VALID,89.5065,VALID,206.502,VALID,20.717,VALID,302,VALID,0,
2015-01-11, 08:35:04,VALID,919.535,VALID,0,VALID,88.9576,VALID,211.981,VALID,20.678,VALID,302,VALID,0,
2015-01-11, 08:36:04,VALID,919.55,VALID,0,VALID,88.8052,VALID,217.676,VALID,20.6374,VALID,301,VALID,0,
2015-01-11, 08:37:04,VALID,919.545,VALID,0,VALID,89.6666,VALID,223.37,VALID,20.6764,VALID,302,VALID,0,
2015-01-11, 08:38:04,VALID,919.548,VALID,0,VALID,90.2003,VALID,228.527,VALID,20.7365,VALID,302,VALID,0,
2015-01-11, 08:39:04,VALID,919.553,VALID,0,VALID,90.2308,VALID,233.577,VALID,20.7544,VALID,302,VALID,0,
2015-01-11, 08:40:04,VALID,919.59,VALID,0,VALID,90.2841,VALID,239.486,VALID,20.8129,VALID,302,VALID,0,
2015-01-11, 08:41:04,VALID,919.571,VALID,0,VALID,89.4684,VALID,248.297,VALID,20.8324,VALID,302,VALID,0,
2015-01-11, 08:42:04,VALID,919.582,VALID,0,VALID,90.0707,VALID,260.222,VALID,20.8519,VALID,336,VALID,0.448828,
2015-01-11, 08:43:04,VALID,919.594,VALID,0,VALID,90.8711,VALID,260.545,VALID,20.93,VALID,339,VALID,0.521484,
2015-01-11, 08:44:04,VALID,919.59,VALID,0,VALID,91.2447,VALID,267.099,VALID,21.047,VALID,354,VALID,0.840625,
2015-01-11, 08:45:04,VALID,919.619,VALID,0,VALID,90.0478,VALID,308.893,VALID,21.047,VALID,316,VALID,0.717578,
2015-01-11, 08:46:04,VALID,919.586,VALID,0,VALID,90.2079,VALID,291.166,VALID,21.047,VALID,351,VALID,0.755859,
2015-01-11, 08:47:04,VALID,919.604,VALID,0,VALID,91.298,VALID,279.132,VALID,21.1445,VALID,8,VALID,0.978516,
2015-01-11, 08:48:04,VALID,919.616,VALID,0,VALID,91.0693,VALID,277.95,VALID,21.2226,VALID,10,VALID,1.87266,
2015-01-11, 08:49:04,VALID,919.598,VALID,0,VALID,90.2689,VALID,291.918,VALID,21.2437,VALID,360,VALID,1.68672,
2015-01-11, 08:50:04,VALID,919.614,VALID,0,VALID,89.3769,VALID,406.128,VALID,21.2226,VALID,351,VALID,1.03008,
2015-01-11, 08:51:04,VALID,919.601,VALID,0,VALID,89.5142,VALID,295.785,VALID,21.2811,VALID,328,VALID,1.19648,
2015-01-11, 08:52:04,VALID,919.607,VALID,0,VALID,90.0173,VALID,279.347,VALID,21.3217,VALID,310,VALID,0.7125,
2015-01-11, 08:53:04,VALID,919.621,VALID,0,VALID,90.5967,VALID,272.686,VALID,21.3786,VALID,343,VALID,0.876953,
2015-01-11, 08:54:04,VALID,919.584,VALID,0,VALID,90.0097,VALID,267.314,VALID,21.3981,VALID,343,VALID,1.28164,
2015-01-11, 08:55:04,VALID,919.58,VALID,0,VALID,88.5993,VALID,264.305,VALID,21.4372,VALID,1,VALID,1.22734,
2015-01-11, 08:56:04,VALID,919.555,VALID,0,VALID,88.1191,VALID,256.14,VALID,21.4177,VALID,25,VALID,1.80898,
2015-01-11, 08:57:04,VALID,919.608,VALID,0,VALID,89.2702,VALID,250.553,VALID,21.4355,VALID,15,VALID,1.47227,
2015-01-11, 08:58:04,VALID,919.65,VALID,0,VALID,88.9271,VALID,247.437,VALID,21.4762,VALID,346,VALID,1.36641,
2015-01-11, 08:59:04,VALID,919.648,VALID,0,VALID,89.3159,VALID,248.404,VALID,21.5136,VALID,349,VALID,1.07539,
2015-01-11, 09:00:04,VALID,919.658,VALID,0,VALID,87.6693,VALID,253.024,VALID,21.4941,VALID,347,VALID,1.08359,
2015-01-11, 09:01:04,VALID,919.647,VALID,0,VALID,88.607,VALID,257.107,VALID,21.5152,VALID,350,VALID,1.17734,
2015-01-11, 09:02:04,VALID,919.625,VALID,0,VALID,87.5549,VALID,259.578,VALID,21.4567,VALID,33,VALID,2.19883,
2015-01-11, 09:03:04,VALID,919.679,VALID,0,VALID,88.8128,VALID,260.76,VALID,21.4762,VALID,353,VALID,1.08633,
2015-01-11, 09:04:04,VALID,919.684,VALID,0,VALID,88.4316,VALID,260.008,VALID,21.5331,VALID,355,VALID,1.61563,
2015-01-11, 09:05:04,VALID,919.714,VALID,0,VALID,87.3339,VALID,258.826,VALID,21.5152,VALID,2,VALID,1.61211,
2015-01-11, 09:06:04,VALID,919.722,VALID,0,VALID,88.2792,VALID,256.569,VALID,21.5347,VALID,352,VALID,0.582812,
2015-01-11, 09:07:04,VALID,919.719,VALID,0,VALID,89.2778,VALID,254.85,VALID,21.5932,VALID,12,VALID,1.08906,
2015-01-11, 09:08:04,VALID,919.724,VALID,0,VALID,88.5612,VALID,253.669,VALID,21.6111,VALID,5,VALID,1.37227,
2015-01-11, 09:09:04,VALID,919.71,VALID,0,VALID,89.5142,VALID,253.669,VALID,21.6111,VALID,7,VALID,0.525,
2015-01-11, 09:10:04,VALID,919.711,VALID,0,VALID,89.1254,VALID,252.272,VALID,21.6111,VALID,348,VALID,0.942187,
2015-01-11, 09:11:04,VALID,919.702,VALID,0,VALID,88.1191,VALID,249.801,VALID,21.6501,VALID,25,VALID,1.86602,
2015-01-11, 09:12:04,VALID,919.673,VALID,0,VALID,88.1419,VALID,248.189,VALID,21.7087,VALID,30,VALID,1.60312,
2015-01-11, 09:13:04,VALID,919.718,VALID,0,VALID,87.4634,VALID,246.9,VALID,21.7867,VALID,340,VALID,1.03477,
2015-01-11, 09:14:04,VALID,919.698,VALID,0,VALID,86.6172,VALID,245.718,VALID,21.7672,VALID,305,VALID,1.12969,
2015-01-11, 09:15:04,VALID,919.7,VALID,0,VALID,87.5702,VALID,244.429,VALID,21.7655,VALID,346,VALID,0.0921875,
2015-01-11, 09:16:04,VALID,919.734,VALID,0,VALID,87.593,VALID,242.817,VALID,21.8647,VALID,359,VALID,0.492578,
2015-01-11, 09:17:04,VALID,919.732,VALID,0,VALID,87.6312,VALID,243.139,VALID,21.9411,VALID,12,VALID,0.469922,
2015-01-11, 09:18:04,VALID,919.675,VALID,0,VALID,87.4634,VALID,243.784,VALID,21.9606,VALID,14,VALID,0.966406,
2015-01-11, 09:19:04,VALID,919.683,VALID,0,VALID,87.3643,VALID,245.718,VALID,21.9623,VALID,18,VALID,1.01641,
2015-01-11, 09:20:04,VALID,919.674,VALID,0,VALID,88.2105,VALID,247.33,VALID,21.9428,VALID,346,VALID,0.461328,
2015-01-11, 09:21:04,VALID,919.668,VALID,0,VALID,86.6859,VALID,248.726,VALID,21.9428,VALID,327,VALID,0.774219,
2015-01-11, 09:22:04,VALID,919.693,VALID,0,VALID,85.306,VALID,249.801,VALID,21.9233,VALID,15,VALID,2.00078,
2015-01-11, 09:23:04,VALID,919.655,VALID,0,VALID,86.2208,VALID,250.66,VALID,21.9623,VALID,22,VALID,1.48516,
2015-01-11, 09:24:04,VALID,919.638,VALID,0,VALID,86.4572,VALID,251.412,VALID,22.0013,INVALID,360,INVALID,0,
2015-01-11, 09:25:04,VALID,919.671,VALID,0,VALID,84.9858,VALID,253.883,VALID,22.0403,VALID,41,VALID,0.682422,
2015-01-11, 09:26:04,VALID,919.629,VALID,0,VALID,85.4356,VALID,255.925,VALID,22.1574,VALID,10,VALID,1.50547,
2015-01-11, 09:27:04,VALID,919.637,VALID,0,VALID,85.3136,VALID,252.809,VALID,22.2159,VALID,359,VALID,1.19336,
2015-01-11, 09:28:04,VALID,919.64,VALID,0,VALID,84.437,VALID,253.239,VALID,22.1379,VALID,357,VALID,0.865234,
2015-01-11, 09:29:04,VALID,919.627,VALID,0,VALID,83.4154,VALID,254.313,VALID,22.0403,VALID,3,VALID,1.90977,
2015-01-11, 09:30:04,VALID,919.613,VALID,0,VALID,84.719,VALID,255.495,VALID,21.9411,VALID,10,VALID,0.996484,
2015-01-11, 09:31:04,VALID,919.61,VALID,0,VALID,83.4917,VALID,256.462,VALID,21.9428,VALID,103,VALID,0.906641,
2015-01-11, 09:32:04,VALID,919.638,VALID,0,VALID,83.7127,VALID,257.322,VALID,21.9428,VALID,11,VALID,0.394141,
2015-01-11, 09:33:04,VALID,919.632,VALID,0,VALID,84.7266,VALID,257.536,VALID,22.0208,VALID,29,VALID,1.04453,
2015-01-11, 09:34:04,VALID,919.621,VALID,0,VALID,84.9477,VALID,259.148,VALID,22.0208,VALID,8,VALID,0.873828,
2015-01-11, 09:35:04,VALID,919.624,VALID,0,VALID,84.2692,VALID,261.834,VALID,22.0403,VALID,15,VALID,1.21836,
2015-01-11, 09:36:04,VALID,919.633,VALID,0,VALID,84.6199,VALID,265.057,VALID,22.0387,VALID,351,VALID,0.657031,
2015-01-11, 09:37:04,VALID,919.632,VALID,0,VALID,85.8549,VALID,267.851,VALID,22.0989,VALID,6,VALID,1.20508,
2015-01-11, 09:38:04,VALID,919.598,VALID,0,VALID,86.0226,VALID,270,VALID,22.1184,VALID,10,VALID,0.900781,
2015-01-11, 09:39:04,VALID,919.597,VALID,0,VALID,84.7571,VALID,271.719,VALID,22.2176,VALID,10,VALID,0.918359,
2015-01-11, 09:40:04,VALID,919.581,VALID,0,VALID,82.9885,VALID,274.62,VALID,22.2371,VALID,288,VALID,1.09922,
2015-01-11, 09:41:04,VALID,919.554,VALID,0,VALID,83.8576,VALID,278.38,VALID,22.2354,VALID,355,VALID,0.952344,